Weather History for KQIR - January, 2013

Change the Weather History Date:

Wednesday, January 23, 2013

  Actual Average Record
Temperature  
Mean Temperature 62 °F -  
Max Temperature 75 °F - - ()
Min Temperature 50 °F - - ()
Degree Days  
Heating Degree Days 2    
Growing Degree Days 12 (Base 50)    
Moisture  
Dew Point 52 °F    
Average Humidity 84    
Maximum Humidity 100    
Minimum Humidity 29    
Precipitation  
Precipitation 0.00 in - - ()
Sea Level Pressure  
Sea Level Pressure 30.19 in    
Wind  
Wind Speed 4 mph ()    
Max Wind Speed 7 mph    
Max Gust Speed -    
Visibility 2.8 miles    
Events Fog    
T = Trace of Precipitation, MM = Missing Value Source: Averaged Metar Reports

Daily Weather History Graph

Daily Weather History Graph

Search for Another Location

Airport or City:

Trip Planner

Search our weather history database for the weather conditions in past years. The results will help you decide how hot, cold, wet, or windy it might be!

Date:

Astronomy

Jan. 23, 2013 Rise Set
Actual Time 6:20 AM AST 5:12 PM AST
Civil Twilight 5:56 AM AST 5:36 PM AST
Nautical Twilight 5:28 AM AST 6:04 PM AST
Astronomical Twilight 5:01 AM AST 6:32 PM AST
Moon 2:08 PM AST (1/23) 3:08 AM AST (1/23)
Length of Visible Light 11h 40m
Length of Day
10h 51m
Waxing Gibbous, 87% of the Moon is Illuminated
Jan 23
Waxing Gibbous
Jan 27
Full
Feb 3
Last Quarter
Feb 10
New
Feb 17
First Quarter

Hourly Weather History & Observations

Time (AST) Temp. Dew Point Humidity Pressure Visibility Wind Dir Wind Speed Gust Speed Precip Events Conditions
12:55 AM 56.3 °F 54.0 °F 92% 30.17 in 5.0 mi NW 6.9 mph - N/A   Clear
1:53 AM 55.4 °F 53.6 °F 94% 30.17 in - WNW 4.6 mph - N/A   Clear
1:55 AM 55.9 °F 54.0 °F 93% 30.16 in - WNW 4.6 mph - N/A   Clear
2:27 AM 55.4 °F 53.6 °F 94% 30.16 in 3.7 mi WNW 5.8 mph - N/A   Clear
2:31 AM 55.4 °F 53.6 °F 94% 30.16 in - WNW 5.8 mph - N/A   Clear
2:55 AM 54.9 °F 53.4 °F 95% 30.16 in - WNW 5.8 mph - N/A   Clear
3:15 AM 53.6 °F 51.8 °F 94% 30.16 in 2.5 mi West 5.8 mph - N/A   Clear
3:53 AM 53.6 °F 51.8 °F 94% 30.16 in - Calm Calm - N/A   Clear
3:55 AM 52.7 °F 51.4 °F 95% 30.16 in - Calm Calm - N/A   Clear
4:07 AM 51.8 °F 50.0 °F 94% 30.16 in 1.5 mi West 3.5 mph - N/A   Clear
4:08 AM 51.8 °F 50.0 °F 94% 30.16 in 1.2 mi West 4.6 mph - N/A   Clear
4:09 AM 51.8 °F 50.0 °F 94% 30.16 in 0.7 mi West 4.6 mph - N/A   Clear
4:11 AM 50.0 °F 48.2 °F 94% 30.16 in 0.5 mi WNW 5.8 mph - N/A Fog Fog
4:14 AM 50.0 °F 48.2 °F 94% 30.17 in 0.2 mi WNW 5.8 mph - N/A Fog Fog
4:18 AM 50.0 °F 48.2 °F 94% 30.17 in 0.2 mi WNW 6.9 mph - N/A Fog Fog
4:40 AM 50.0 °F 48.2 °F 94% 30.17 in 0.2 mi WNW 5.8 mph - N/A Fog Fog
4:55 AM 50.5 °F 49.6 °F 97% 30.17 in 0.1 mi WNW 4.6 mph - N/A Fog Fog
5:14 AM 51.8 °F 51.8 °F 100% 30.18 in - WNW 6.9 mph - N/A Fog Fog
5:55 AM 52.2 °F 51.6 °F 98% 30.19 in - West 4.6 mph - N/A Fog Fog
6:55 AM 51.3 °F 50.7 °F 98% 30.20 in 0.1 mi West 3.5 mph - N/A Fog Fog
7:55 AM 54.3 °F 54.0 °F 99% 30.23 in 0.1 mi West 3.5 mph - N/A Fog Fog
8:03 AM 55.4 °F 53.6 °F 94% 30.23 in 0.1 mi WNW 4.6 mph - N/A Fog Fog
8:26 AM 55.4 °F 53.6 °F 94% 30.23 in 0.2 mi WSW 3.5 mph - N/A Fog Fog
8:35 AM 55.4 °F 55.4 °F 100% 30.23 in 0.2 mi SSW 4.6 mph - N/A Fog Fog
8:44 AM 57.2 °F 55.4 °F 94% 30.24 in 0.2 mi WSW 3.5 mph - N/A Fog Fog
8:53 AM 57.2 °F 57.2 °F 100% 30.24 in 0.5 mi West 4.6 mph - N/A Fog Fog
8:55 AM 57.0 °F 56.7 °F 99% 30.24 in 0.5 mi WSW 4.6 mph - N/A Fog Fog
8:57 AM 57.2 °F 57.2 °F 100% 30.24 in 0.2 mi WSW 4.6 mph - N/A Fog Fog
8:59 AM 57.2 °F 57.2 °F 100% 30.24 in 0.5 mi West 4.6 mph - N/A Fog Fog
9:06 AM 57.2 °F 57.2 °F 100% 30.24 in 0.5 mi West 5.8 mph - N/A Fog Fog
9:09 AM 57.2 °F 57.2 °F 100% 30.24 in 0.7 mi West 5.8 mph - N/A   Partly Cloudy
9:13 AM 57.2 °F 57.2 °F 100% 30.24 in 1.0 mi West 4.6 mph - N/A   Partly Cloudy
9:18 AM 57.2 °F 57.2 °F 100% 30.24 in 1.2 mi West 4.6 mph - N/A   Partly Cloudy
9:20 AM 59.0 °F 57.2 °F 94% 30.24 in 1.5 mi West 4.6 mph - N/A   Scattered Clouds
9:22 AM 59.0 °F 57.2 °F 94% 30.24 in 1.7 mi West 4.6 mph - N/A   Partly Cloudy
9:23 AM 59.0 °F 57.2 °F 94% 30.24 in - WNW 4.6 mph - N/A   Partly Cloudy
9:24 AM 59.0 °F 57.2 °F 94% 30.24 in 2.5 mi WNW 4.6 mph - N/A   Partly Cloudy
9:26 AM 59.0 °F 59.0 °F 100% 30.24 in - WNW 4.6 mph - N/A   Partly Cloudy
9:28 AM 59.0 °F 59.0 °F 100% 30.24 in 3.7 mi WNW 4.6 mph - N/A   Partly Cloudy
9:55 AM 61.0 °F 60.4 °F 98% 30.24 in 6.2 mi West 3.5 mph - N/A   Clear
10:55 AM 67.6 °F 55.8 °F 66% 30.21 in 6.2 mi WNW 3.5 mph - N/A   Clear
11:55 AM 71.6 °F 49.5 °F 45% 30.18 in 6.2 mi NW 3.5 mph - N/A   Clear
12:55 PM 73.6 °F 46.6 °F 38% 30.15 in 6.2 mi Variable 3.5 mph - N/A   Clear
1:55 PM 74.8 °F 42.8 °F 32% 30.14 in 6.2 mi NW 5.8 mph - N/A   Clear
2:55 PM 75.4 °F 41.2 °F 29% 30.14 in 6.2 mi NW 6.9 mph - N/A   Clear
3:55 PM 74.8 °F 41.9 °F 31% 30.14 in 6.2 mi WNW 4.6 mph - N/A   Clear
4:55 PM 72.9 °F 43.7 °F 35% 30.14 in 6.2 mi WNW 4.6 mph - N/A   Clear
5:55 PM 69.4 °F 42.6 °F 38% 30.16 in 6.2 mi WNW 5.8 mph - N/A   Clear
6:55 PM 65.3 °F 41.7 °F 42% 30.17 in 6.2 mi NNW 5.8 mph - N/A   Clear
7:55 PM 66.0 °F 43.2 °F 43% 30.17 in 6.2 mi NNE 4.6 mph - N/A   Clear
8:55 PM 62.6 °F 51.4 °F 67% 30.17 in 6.2 mi East 4.6 mph - N/A   Clear
9:55 PM 61.9 °F 54.0 °F 75% 30.17 in 6.2 mi ESE 4.6 mph - N/A   Clear
10:55 PM 60.4 °F 56.7 °F 87% 30.15 in 6.2 mi East 3.5 mph - N/A   Clear
11:55 PM 56.1 °F 51.6 °F 85% 30.14 in 6.2 mi Calm Calm - N/A   Clear